[[{"header":{"parameterUnit":"m.s-1","parameterCategory":1,"la1":30.2991,"la2":30.254,"lo1":-89.0895,"lo2":-89.0444,"dy":0.0017,"dx":0.0017,"nx":28,"ny":28,"refTime":"2023-08-05T21:00:00:Z","depth":0,"parameterNumber":2,"parameterNumberName":"U-component_of_WINDS"},"data":[0,0,0,0,0,0,0,0,0,0,0,0,0,0,0,0,0,0,0,0,0,0,0,0,0,0,0,0,0,0,0,0,0,0,0,0,0,0,0,0,0,0,0,0,0,0,0,0,0,0,0,0,0,0,0,0,0,0,2.9031,2.9033,0,2.9182,2.9184,2.9185,2.9132,2.9129,2.9126,2.9122,2.9277,2.9284,2.9291,0,0,0,0,0,0,0,0,0,0,0,0,0,2.8695,2.8701,2.9031,2.9033,2.9035,2.9182,2.9184,2.9186,2.9133,2.9129,2.9125,2.9121,2.9274,2.9283,2.9291,0,0,0,0,0,0,0,0,0,0,0,0,0,2.8843,2.8703,2.9031,2.9026,2.9027,2.9181,2.9184,2.9186,2.9134,2.9129,2.9124,2.9119,2.9271,2.9282,2.9293,2.946,0,0,2.9326,2.933,0,0,0,0,0,0,0,0,2.8834,2.8855,2.9025,2.9027,2.9028,2.9133,2.9122,2.9278,2.9135,2.9093,2.9122,2.9116,2.9233,2.9247,2.9286,2.9467,2.9474,2.9327,2.9333,2.9338,2.9341,0,0,0,0,0,0,0,2.8824,2.8848,2.9091,2.9027,2.9029,2.9016,2.9031,2.9151,2.9189,2.9097,2.9093,2.9112,2.9233,2.9276,2.9289,2.9476,2.9326,2.9336,2.9343,2.9347,2.9801,2.9806,0,0,0,0,0,0,2.8813,2.884,2.9086,2.9095,2.8917,2.9026,2.9043,2.9105,2.9188,2.9196,2.9116,2.9109,2.926,2.9277,2.9294,2.9496,2.9338,2.9348,2.9354,2.9795,2.9802,2.9808,0,0,0,0,0,0,2.8806,2.8836,2.908,2.8967,2.8997,2.9037,2.9106,2.911,2.9153,2.9203,2.9209,2.9153,2.9256,2.9279,2.9419,2.95,2.9353,2.9363,2.9789,2.9797,2.9805,2.99,0,0,0,0,0,0,2.8797,2.8834,2.8899,2.8969,2.9003,2.9203,2.9111,2.9117,2.9172,2.9164,2.9239,2.9246,2.9254,2.9403,2.943,2.9513,2.9371,2.9782,2.9793,2.9802,2.989,2.991,2.9928,0,0,0,0,0,2.8785,2.892,2.8902,2.8932,2.9085,2.9208,2.9228,2.9234,2.9179,2.9244,2.9275,2.9244,2.9486,2.9418,2.9447,2.9535,2.9777,2.979,2.9802,2.9881,2.9906,2.9928,0,0,0,0,0,0,2.8858,2.8929,2.891,2.9072,2.9134,2.9199,2.9281,2.926,2.934,2.9329,2.9333,2.935,2.9494,2.9528,2.945,2.97,2.9623,2.9642,2.9674,2.9698,2.9717,2.9707,2.938,0,0,0,0,0,2.8893,2.8988,2.9043,2.918,2.9213,2.9242,2.9295,2.9294,2.9359,2.9386,2.9427,2.9491,2.9581,2.9641,2.9727,2.9893,2.9909,2.9968,2.9987,3.0002,3.0019,3.0109,3.0135,2.9849,2.9849,2.9849,0,0,2.8967,2.9016,2.9076,2.9196,2.9245,2.9342,2.9264,2.9371,2.9442,2.9402,2.9537,2.9569,2.964,2.9794,2.9863,2.9826,3.0101,3.0018,3.003,3.0039,3.0124,3.0151,3.0175,2.9858,2.9856,2.9855,0,0,2.915,2.9197,2.9316,2.9366,2.9439,2.9457,2.9486,2.9553,2.9573,2.9708,2.9679,2.9764,2.992,2.9972,3.0018,3.0218,3.0192,3.0245,3.0347,3.0434,3.0456,3.0476,3.0548,3.0573,3.0262,3.0262,3.0262,0,2.9232,2.9378,2.938,2.9488,2.9542,2.9508,2.9628,2.9675,2.9774,2.9811,2.9767,2.9961,3.0007,3.0172,3.022,3.0259,3.0291,3.0238,3.0453,3.0473,3.0492,3.056,3.0587,3.0268,3.0267,3.0267,3.0266,0,2.9474,2.9575,2.9662,2.9758,2.982,2.9934,2.9953,3.0016,3.0008,3.003,3.0167,3.022,3.0316,3.0354,3.0348,3.0518,3.0492,3.0451,3.0374,3.0525,3.0589,3.0615,3.0277,3.0275,3.0273,3.0271,0,0,2.9712,2.9805,2.9837,2.9879,2.9957,3.0035,3.0145,3.0238,3.0292,3.036,3.0453,3.0584,3.0546,3.0599,3.0598,3.0674,3.0828,3.0623,3.0625,3.066,3.1018,3.105,3.108,3.081,3.0815,3.0819,3.1012,0,2.9902,3.0098,3.0102,3.0281,3.0374,3.0342,3.0438,3.0495,3.0518,3.0599,3.0624,3.0717,3.0659,3.0691,3.0764,3.0794,3.09,3.078,3.0897,3.0901,3.0882,3.1114,3.1148,3.1328,3.1037,3.1041,3.1044,0,3.0151,3.0227,3.0415,3.0478,3.0517,3.0604,3.0689,3.0767,3.083,3.0841,3.0899,3.0886,3.0998,3.0915,3.1069,3.0987,3.1034,3.1056,3.1063,3.1076,3.0984,3.1134,3.1385,3.1413,3.1084,3.1081,3.1078,0,3.0306,3.0454,3.0586,3.0623,3.0699,3.0761,3.0795,3.0854,3.0909,3.0982,3.1018,3.1103,3.1151,3.1216,3.1226,3.1165,3.138,3.1299,3.1393,3.1393,3.1442,3.1439,3.1706,3.147,3.1469,3.1469,3.1468,0,3.052,3.0637,3.0657,3.0738,3.0868,3.0869,3.0997,3.1026,3.1078,3.1164,3.114,3.122,3.1228,3.131,3.1318,3.1444,3.1465,3.1477,3.1478,3.1481,3.1479,3.1513,3.1502,3.1476,3.1474,3.1473,3.1472,0,3.0716,3.0734,3.0876,3.0935,3.0953,3.1046,3.1096,3.1173,3.1192,3.13,3.1326,3.1356,3.1452,3.1467,3.158,3.1584,3.1736,3.1723,3.1715,3.1714,3.1807,3.1799,3.2107,3.2147,3.1883,3.1886,3.1888,0,3.0852,3.0941,3.101,3.1065,3.1103,3.1193,3.1248,3.1252,3.1311,3.1389,3.1456,3.1549,3.1625,3.1779,3.181,3.1895,3.1886,3.1987,3.1898,3.1897,3.1888,3.1884,3.1892,3.2005,3.2008,3.2011,3.2013,0,3.1092,3.1096,3.1177,3.1262,3.1329,3.1395,3.1458,3.1505,3.1517,3.1584,3.1681,3.1739,3.1853,3.1946,3.203,3.2064,3.2041,3.204,3.2066,3.2071,3.2062,3.2069,3.1763,3.2033,3.2031,3.203,3.2029,3.2028,3.1263,3.134,3.14,3.1491,3.1538,3.1597,3.1672,3.17,3.1781,3.1875,3.1871,3.1978,3.2037,3.2147,3.2187,3.227,3.2237,3.2275,3.2285,3.2295,3.2305,3.2047,3.2285,3.2285,3.2284,3.2284,3.2283,0,3.1502,3.1538,3.1622,3.171,3.1782,3.1752,3.1819,3.188,3.1975,3.2032,3.2105,3.2216,3.2305,3.2342,3.2429,3.2489,3.248,3.2511,3.2508,3.2516,3.2329,3.2298,3.2517,3.2517,3.2517,3.2517,3.2517,3.2517,3.1635,3.1764,3.1775,3.1926,3.1961,3.2066,3.2107,3.2161,3.2206,3.2331,3.2405,3.2428,3.2476,3.2566,3.2646,3.2654,3.2688,3.2725,3.2728,3.2553,3.253,3.2507,3.2478,3.2731,3.2732,3.2909,3.2911,3.2912]},{"header":{"parameterUnit":"m.s-1","parameterCategory":1,"la1":30.2991,"la2":30.254,"lo1":-89.0895,"lo2":-89.0444,"dy":0.0017,"dx":0.0017,"nx":28,"ny":28,"refTime":"2023-08-05T21:00:00:Z","depth":0,"parameterNumber":3,"parameterNumberName":"V-component_of_WINDS"},"data":[0,0,0,0,0,0,0,0,0,0,0,0,0,0,0,0,0,0,0,0,0,0,0,0,0,0,0,0,0,0,0,0,0,0,0,0,0,0,0,0,0,0,0,0,0,0,0,0,0,0,0,0,0,0,0,0,0,0,5.068,5.0682,0,5.0799,5.0801,5.0802,5.0764,5.0762,5.0759,5.0757,5.0871,5.0876,5.0881,0,0,0,0,0,0,0,0,0,0,0,0,0,5.0411,5.0416,5.068,5.0682,5.0683,5.0799,5.0801,5.0802,5.0765,5.0762,5.0759,5.0756,5.0869,5.0875,5.0882,0,0,0,0,0,0,0,0,0,0,0,0,0,5.0529,5.0418,5.068,5.0679,5.068,5.0799,5.0801,5.0803,5.0765,5.0761,5.0758,5.0754,5.0867,5.0875,5.0883,5.1008,0,0,5.0907,5.0911,0,0,0,0,0,0,0,0,5.0522,5.0538,5.0677,5.0679,5.068,5.0763,5.0747,5.0871,5.0766,5.0733,5.0757,5.0752,5.0837,5.0848,5.0878,5.1013,5.1018,5.0908,5.0913,5.0916,5.0918,0,0,0,0,0,0,0,5.0514,5.0533,5.0727,5.0679,5.0681,5.0669,5.0681,5.0771,5.0804,5.0735,5.0733,5.0748,5.0837,5.087,5.088,5.1019,5.0908,5.0915,5.092,5.0923,5.126,5.1264,0,0,0,0,0,0,5.0506,5.0527,5.0723,5.0731,5.0591,5.0677,5.0691,5.074,5.0803,5.081,5.0751,5.0746,5.0858,5.0871,5.0884,5.1033,5.0916,5.0924,5.0928,5.1256,5.1261,5.1265,0,0,0,0,0,0,5.05,5.0524,5.0718,5.0628,5.0652,5.0686,5.0741,5.0745,5.0778,5.0815,5.082,5.0779,5.0856,5.0873,5.0977,5.1037,5.0927,5.0935,5.1251,5.1257,5.1263,5.1334,0,0,0,0,0,0,5.0493,5.0522,5.0573,5.063,5.0657,5.0813,5.0745,5.075,5.0792,5.0787,5.0843,5.0849,5.0854,5.0965,5.0985,5.1046,5.0941,5.1246,5.1254,5.1261,5.1326,5.1341,5.1355,0,0,0,0,0,5.0483,5.0587,5.0575,5.0599,5.0721,5.0816,5.0831,5.0838,5.0798,5.0847,5.087,5.0847,5.1027,5.0976,5.0998,5.1062,5.1242,5.1251,5.126,5.132,5.1338,5.1354,0,0,0,0,0,0,5.0533,5.0594,5.0582,5.0708,5.0757,5.081,5.0872,5.0858,5.0919,5.091,5.0913,5.0926,5.1033,5.1058,5.1,5.1185,5.1128,5.1142,5.1166,5.1184,5.1198,5.1189,5.0948,0,0,0,0,0,5.0559,5.0635,5.0682,5.0788,5.0814,5.0839,5.088,5.0881,5.0932,5.0952,5.0983,5.1031,5.1098,5.1142,5.1206,5.1329,5.1339,5.1384,5.1398,5.1409,5.1421,5.1486,5.1506,5.1296,5.1296,5.1295,0,0,5.0613,5.0655,5.0702,5.0799,5.0838,5.0912,5.0857,5.0938,5.0993,5.0963,5.1064,5.1089,5.1142,5.1256,5.1307,5.1279,5.1482,5.1421,5.143,5.1436,5.1498,5.1517,5.1535,5.1302,5.1301,5.13,0,0,5.0749,5.079,5.0882,5.0922,5.0981,5.0997,5.1019,5.1074,5.1089,5.1191,5.117,5.1233,5.1349,5.1387,5.1422,5.157,5.1549,5.159,5.1665,5.1728,5.1744,5.1759,5.181,5.1829,5.1602,5.1602,5.1602,0,5.0807,5.0922,5.093,5.1014,5.1055,5.1034,5.1125,5.1162,5.1239,5.1267,5.1235,5.1379,5.1413,5.1535,5.1571,5.16,5.1623,5.1584,5.1742,5.1756,5.177,5.1819,5.1838,5.1607,5.1606,5.1606,5.1605,0,5.099,5.107,5.1136,5.1213,5.1262,5.1349,5.1366,5.1415,5.141,5.1428,5.153,5.157,5.1641,5.167,5.1666,5.179,5.1771,5.1741,5.1683,5.1795,5.184,5.1859,5.1613,5.1612,5.161,5.1609,0,0,5.1162,5.1242,5.1266,5.13,5.1363,5.1423,5.1507,5.1579,5.1619,5.1671,5.174,5.1838,5.181,5.1849,5.1849,5.1904,5.2017,5.1867,5.1868,5.1892,5.2154,5.2176,5.2198,5.2004,5.2007,5.201,5.2149,0,5.1303,5.1455,5.1463,5.1599,5.1671,5.165,5.1723,5.1768,5.1786,5.1847,5.1866,5.1935,5.1893,5.1917,5.1971,5.1992,5.2069,5.1982,5.2065,5.2068,5.2052,5.2222,5.2246,5.2375,5.2167,5.217,5.2172,0,5.1488,5.1549,5.1693,5.1744,5.1775,5.1841,5.1905,5.1965,5.2014,5.2023,5.2066,5.2058,5.214,5.208,5.2192,5.2132,5.2166,5.2181,5.2186,5.2194,5.2127,5.2233,5.2417,5.2436,5.2201,5.2198,5.2196,0,5.1597,5.1715,5.1816,5.1845,5.1908,5.1955,5.1982,5.2028,5.207,5.2125,5.2152,5.2215,5.225,5.2298,5.2305,5.2261,5.2417,5.2357,5.2424,5.2424,5.2458,5.2456,5.2649,5.2481,5.2481,5.248,5.248,0,5.1754,5.1842,5.1866,5.1928,5.2025,5.2032,5.2127,5.215,5.2191,5.2255,5.2239,5.2299,5.2305,5.2366,5.2371,5.2462,5.2478,5.2485,5.2486,5.2487,5.2486,5.2509,5.25,5.2486,5.2484,5.2483,5.2483,0,5.1893,5.1913,5.2021,5.2072,5.2086,5.2156,5.2198,5.2255,5.2271,5.2352,5.2371,5.2395,5.2466,5.2478,5.256,5.2563,5.2671,5.2663,5.2656,5.2654,5.272,5.2713,5.2934,5.2963,5.2777,5.2779,5.278,0,5.1991,5.2059,5.2117,5.216,5.2191,5.226,5.2303,5.231,5.2355,5.2415,5.2464,5.2533,5.2589,5.2701,5.2724,5.2786,5.2778,5.2851,5.2787,5.2785,5.2778,5.2773,5.2779,5.2863,5.2865,5.2867,5.2868,0,5.2163,5.2169,5.2233,5.23,5.2352,5.2404,5.2454,5.2489,5.2502,5.2552,5.2625,5.2668,5.2752,5.282,5.2881,5.2906,5.2889,5.2888,5.2907,5.2908,5.2901,5.2904,5.2688,5.2883,5.2882,5.2881,5.288,5.2879,5.2284,5.2342,5.2393,5.2463,5.2502,5.2548,5.2604,5.2628,5.269,5.276,5.276,5.2839,5.2883,5.2963,5.2992,5.3052,5.3028,5.3055,5.3062,5.3068,5.3074,5.2892,5.3063,5.3062,5.3062,5.3062,5.3061,0,5.2454,5.2485,5.255,5.2621,5.2675,5.2657,5.271,5.2756,5.2827,5.2871,5.2926,5.3008,5.3073,5.3101,5.3164,5.3206,5.3199,5.3222,5.3218,5.3224,5.3092,5.307,5.3226,5.3226,5.3226,5.3226,5.3226,5.3226,5.2549,5.2647,5.2658,5.2773,5.2803,5.2882,5.2914,5.2955,5.299,5.3083,5.3138,5.3156,5.3193,5.3258,5.3315,5.3322,5.3345,5.3371,5.3373,5.325,5.3233,5.3217,5.3196,5.3376,5.3376,5.35,5.3501,5.3502]}]]